[[{"header":{"parameterUnit":"m.s-1","parameterCategory":1,"la1":30.2991,"la2":30.254,"lo1":-89.0895,"lo2":-89.0444,"dy":0.0017,"dx":0.0017,"nx":28,"ny":28,"refTime":"2025-04-27T03:00:00:Z","depth":0,"parameterNumber":2,"parameterNumberName":"U-component_of_WINDS"},"data":[0,0,0,0,0,0,0,0,0,0,0,0,0,0,0,0,0,0,0,0,0,0,0,0,0,0,0,0,0,0,0,0,0,0,0,0,0,0,0,0,0,0,0,0,0,0,0,0,0,0,0,0,0,0,0,0,0,0,2.5845,2.5846,0,2.5904,2.5904,2.5905,2.5835,2.5832,2.5829,2.5827,2.5888,2.5892,2.5896,0,0,0,0,0,0,0,0,0,0,0,0,0,2.5673,2.5676,2.5845,2.5846,2.5847,2.5904,2.5904,2.5905,2.5835,2.5832,2.5829,2.5826,2.5886,2.5891,2.5896,0,0,0,0,0,0,0,0,0,0,0,0,0,2.5741,2.5677,2.5845,2.5819,2.5817,2.5903,2.5904,2.5905,2.5836,2.5832,2.5828,2.5824,2.5885,2.5891,2.5897,2.6013,0,0,2.5915,2.5918,0,0,0,0,0,0,0,0,2.5737,2.5747,2.5822,2.5821,2.5819,2.5858,2.5866,2.5941,2.5837,2.5829,2.5827,2.5822,2.5881,2.5887,2.5907,2.6015,2.6018,2.5916,2.5919,2.5922,2.5924,0,0,0,0,0,0,0,2.5733,2.5745,2.5868,2.5823,2.5821,2.5804,2.5809,2.588,2.5876,2.5829,2.5824,2.5832,2.5879,2.5901,2.5908,2.6019,2.5916,2.5921,2.5925,2.5927,2.6222,2.6226,0,0,0,0,0,0,2.5731,2.5741,2.5867,2.587,2.5767,2.581,2.5816,2.5849,2.5875,2.5875,2.5835,2.5828,2.5893,2.5901,2.5909,2.6044,2.5922,2.5928,2.5931,2.6218,2.6223,2.6228,0,0,0,0,0,0,2.5727,2.5743,2.5864,2.5804,2.5818,2.5817,2.5855,2.5852,2.5874,2.588,2.5879,2.5858,2.589,2.5901,2.5987,2.6046,2.593,2.5936,2.6213,2.622,2.6226,2.6317,0,0,0,0,0,0,2.5723,2.5742,2.5786,2.5806,2.5822,2.5941,2.5859,2.5856,2.5884,2.5876,2.5901,2.5901,2.5888,2.5978,2.5993,2.6052,2.5941,2.6208,2.6216,2.6224,2.6309,2.6326,2.634,0,0,0,0,0,2.5717,2.5811,2.5789,2.5805,2.5877,2.5945,2.5954,2.5936,2.589,2.5934,2.5937,2.59,2.6037,2.5987,2.6003,2.6065,2.6204,2.6214,2.6223,2.6302,2.6323,2.634,0,0,0,0,0,0,2.5799,2.5813,2.5789,2.5892,2.5917,2.5933,2.5988,2.5959,2.5999,2.5989,2.5966,2.5972,2.6063,2.6073,2.6017,2.6177,2.6113,2.6126,2.6167,2.6187,2.6203,2.6198,2.5946,0,0,0,0,0,2.5829,2.5883,2.5892,2.5982,2.5996,2.599,2.6018,2.6002,2.6028,2.6039,2.6048,2.6075,2.6123,2.6156,2.6201,2.631,2.6313,2.6361,2.6376,2.6389,2.6401,2.6456,2.6477,2.6259,2.6259,2.6259,0,0,2.5892,2.5906,2.5941,2.5998,2.6016,2.6072,2.5999,2.6062,2.6102,2.6048,2.6129,2.6137,2.6165,2.6262,2.6305,2.6273,2.6461,2.6401,2.6412,2.6416,2.6468,2.6489,2.6507,2.6265,2.6264,2.6263,0,0,2.6034,2.6051,2.6126,2.6145,2.6173,2.6168,2.6186,2.6205,2.6208,2.6289,2.6249,2.6297,2.6382,2.6402,2.6424,2.6572,2.6539,2.6587,2.6669,2.6724,2.6741,2.6756,2.6807,2.6825,2.6599,2.6599,2.6599,0,2.6108,2.619,2.6169,2.6233,2.6258,2.6211,2.6287,2.6306,2.6348,2.6366,2.633,2.6433,2.6449,2.6549,2.6585,2.6605,2.6624,2.6584,2.674,2.6755,2.6769,2.6817,2.6836,2.6604,2.6604,2.6603,2.6603,0,2.6279,2.6336,2.6394,2.6433,2.6466,2.6536,2.6524,2.6559,2.654,2.6539,2.662,2.6637,2.6684,2.6706,2.6689,2.6804,2.6782,2.6744,2.6678,2.6795,2.684,2.6858,2.6612,2.661,2.6609,2.6607,0,0,2.6475,2.6501,2.6522,2.6538,2.6564,2.6608,2.6675,2.672,2.6749,2.6779,2.6834,2.6906,2.6869,2.6894,2.6878,2.6926,2.7039,2.6881,2.6881,2.6908,2.7164,2.7192,2.7213,2.7018,2.7021,2.7024,2.7161,0,2.6615,2.6731,2.6712,2.6824,2.6875,2.683,2.6888,2.691,2.6911,2.6954,2.6954,2.7005,2.6954,2.6968,2.7014,2.7016,2.709,2.7006,2.7067,2.707,2.706,2.7237,2.7267,2.7396,2.7178,2.7181,2.7183,0,2.6795,2.683,2.6946,2.6961,2.6982,2.7035,2.7073,2.7116,2.7139,2.7136,2.7162,2.7137,2.7203,2.7137,2.7226,2.7169,2.7193,2.7198,2.7202,2.7206,2.7133,2.7244,2.7436,2.7455,2.7211,2.7209,2.7207,0,2.6923,2.7,2.7078,2.7094,2.7115,2.7152,2.7163,2.7182,2.721,2.7243,2.726,2.7302,2.7324,2.7356,2.7343,2.7296,2.7434,2.7367,2.7432,2.7432,2.7462,2.746,2.7659,2.748,2.748,2.748,2.7479,0,2.7081,2.7154,2.7136,2.7184,2.7263,2.7241,2.732,2.7325,2.7342,2.739,2.7355,2.74,2.738,2.7424,2.7414,2.7488,2.7499,2.7497,2.7493,2.7499,2.7499,2.7514,2.7504,2.7485,2.7484,2.7483,2.7482,0,2.7238,2.7229,2.7311,2.7324,2.7329,2.7386,2.7396,2.7441,2.7438,2.7499,2.7512,2.7507,2.7557,2.7546,2.7602,2.7594,2.7687,2.7673,2.7679,2.7675,2.7739,2.7732,2.7953,2.798,2.7786,2.7787,2.7789,0,2.7339,2.7393,2.7411,2.744,2.7452,2.75,2.7527,2.7508,2.7537,2.7567,2.7607,2.7654,2.7689,2.7771,2.7772,2.7813,2.7799,2.7873,2.7805,2.7809,2.7798,2.7794,2.7798,2.7887,2.7889,2.7891,2.7892,0,2.7517,2.751,2.755,2.7589,2.7622,2.7651,2.7677,2.7703,2.7685,2.772,2.777,2.7798,2.7853,2.7898,2.7936,2.7946,2.7916,2.7914,2.793,2.7936,2.7937,2.7935,2.7714,2.7908,2.7907,2.7906,2.7905,2.7904,2.7648,2.7693,2.7712,2.7757,2.7774,2.7799,2.7841,2.7842,2.7883,2.7926,2.7912,2.7968,2.7988,2.8035,2.805,2.8093,2.8065,2.809,2.8096,2.8102,2.8109,2.7931,2.81,2.81,2.8099,2.8099,2.8099,0,2.7823,2.7832,2.7874,2.7911,2.7946,2.7914,2.7941,2.7973,2.8022,2.8043,2.8079,2.8135,2.8178,2.8183,2.8224,2.8257,2.8244,2.8268,2.8265,2.8267,2.8133,2.8113,2.8278,2.8278,2.8278,2.8278,2.8278,2.8278,2.7918,2.7992,2.7986,2.8067,2.8076,2.813,2.8148,2.817,2.8186,2.825,2.8286,2.8288,2.8302,2.8343,2.8381,2.8381,2.8397,2.8427,2.8421,2.8295,2.8277,2.826,2.8242,2.8431,2.8431,2.8552,2.8553,2.8554]},{"header":{"parameterUnit":"m.s-1","parameterCategory":1,"la1":30.2991,"la2":30.254,"lo1":-89.0895,"lo2":-89.0444,"dy":0.0017,"dx":0.0017,"nx":28,"ny":28,"refTime":"2025-04-27T03:00:00:Z","depth":0,"parameterNumber":3,"parameterNumberName":"V-component_of_WINDS"},"data":[0,0,0,0,0,0,0,0,0,0,0,0,0,0,0,0,0,0,0,0,0,0,0,0,0,0,0,0,0,0,0,0,0,0,0,0,0,0,0,0,0,0,0,0,0,0,0,0,0,0,0,0,0,0,0,0,0,0,1.1808,1.1809,0,1.1865,1.1866,1.1867,1.1877,1.1876,1.1876,1.1875,1.1931,1.1933,1.1935,0,0,0,0,0,0,0,0,0,0,0,0,0,1.1705,1.1707,1.1808,1.1809,1.181,1.1865,1.1866,1.1867,1.1877,1.1876,1.1876,1.1875,1.1931,1.1933,1.1935,0,0,0,0,0,0,0,0,0,0,0,0,0,1.1754,1.1707,1.1808,1.1821,1.1823,1.1865,1.1866,1.1867,1.1877,1.1876,1.1875,1.1875,1.193,1.1933,1.1936,1.1968,0,0,1.1945,1.1946,0,0,0,0,0,0,0,0,1.1752,1.1758,1.1819,1.182,1.1823,1.1863,1.185,1.1901,1.1877,1.1856,1.1875,1.1874,1.1909,1.1914,1.1926,1.197,1.1973,1.1945,1.1947,1.1948,1.1949,0,0,0,0,0,0,0,1.1748,1.1756,1.1831,1.1819,1.1822,1.1823,1.183,1.186,1.1886,1.1858,1.1859,1.1866,1.191,1.1923,1.1927,1.1974,1.1945,1.1947,1.1949,1.195,1.2045,1.2046,0,0,0,0,0,0,1.1743,1.1753,1.1829,1.1832,1.1785,1.1826,1.1833,1.1851,1.1886,1.189,1.1866,1.1866,1.1918,1.1924,1.1929,1.1968,1.1948,1.1951,1.1952,1.2045,1.2045,1.2046,0,0,0,0,0,0,1.174,1.1749,1.1827,1.1793,1.1803,1.1828,1.1848,1.1852,1.1865,1.1892,1.1896,1.1875,1.1918,1.1925,1.1958,1.197,1.1952,1.1955,1.2044,1.2045,1.2046,1.2046,0,0,0,0,0,0,1.1737,1.1749,1.1762,1.1793,1.1805,1.1855,1.1849,1.1854,1.1871,1.1871,1.1901,1.1906,1.1918,1.1953,1.1961,1.1974,1.1957,1.2043,1.2044,1.2046,1.2045,1.2047,1.2049,0,0,0,0,0,1.1734,1.176,1.1763,1.1772,1.1822,1.1856,1.1862,1.1877,1.1872,1.1885,1.1901,1.1905,1.1968,1.1957,1.1965,1.1979,1.2042,1.2044,1.2045,1.2045,1.2047,1.2049,0,0,0,0,0,0,1.1729,1.1764,1.1768,1.1805,1.1827,1.1858,1.1875,1.1879,1.1904,1.1903,1.1919,1.1926,1.1957,1.1971,1.1959,1.2011,1.2004,1.2008,1.2001,1.2003,1.2005,1.2001,1.1959,0,0,0,0,0,1.1732,1.1758,1.1787,1.1816,1.1828,1.1849,1.1864,1.1874,1.1897,1.1907,1.1926,1.1948,1.1973,1.1989,1.2013,1.2047,1.2053,1.2061,1.2063,1.2064,1.2067,1.2085,1.2088,1.2052,1.2052,1.2052,0,0,1.1739,1.1761,1.1777,1.1816,1.1835,1.186,1.1857,1.1884,1.1902,1.1911,1.1943,1.1957,1.1983,1.2016,1.2032,1.2029,1.2078,1.2067,1.2067,1.207,1.2087,1.209,1.2093,1.2053,1.2053,1.2053,0,0,1.1765,1.1785,1.1811,1.1829,1.1858,1.1871,1.1878,1.1907,1.1917,1.195,1.1956,1.1977,1.202,1.2038,1.2052,1.2082,1.2086,1.209,1.21,1.2117,1.2119,1.2122,1.2132,1.2135,1.2092,1.2092,1.2092,0,1.177,1.1808,1.1824,1.185,1.1867,1.1876,1.1901,1.1918,1.1953,1.1963,1.196,1.2013,1.2031,1.2067,1.2075,1.2086,1.2093,1.2087,1.2118,1.2121,1.2123,1.2133,1.2136,1.2093,1.2093,1.2093,1.2093,0,1.1812,1.1839,1.1857,1.189,1.1908,1.1934,1.1953,1.1969,1.1976,1.199,1.2022,1.2043,1.2072,1.2081,1.2088,1.2118,1.2116,1.2115,1.2108,1.2127,1.2136,1.214,1.2093,1.2093,1.2093,1.2093,0,0,1.1837,1.1878,1.1884,1.1898,1.1929,1.195,1.1975,1.2003,1.2017,1.204,1.2061,1.2096,1.2095,1.2111,1.212,1.2135,1.2156,1.2132,1.2133,1.2135,1.2189,1.2189,1.2193,1.2159,1.2159,1.216,1.2187,0,1.1866,1.1913,1.1927,1.1966,1.1989,1.1997,1.2019,1.204,1.2053,1.2074,1.2088,1.2113,1.211,1.212,1.2135,1.215,1.2167,1.2149,1.2177,1.2178,1.217,1.2198,1.2199,1.2223,1.219,1.2191,1.2192,0,1.1906,1.193,1.1971,1.1998,1.2008,1.2028,1.2054,1.2074,1.2097,1.2105,1.2123,1.2131,1.2156,1.2148,1.2183,1.217,1.2182,1.2191,1.2192,1.2195,1.2186,1.2201,1.2231,1.2235,1.2197,1.2197,1.2197,0,1.1919,1.1961,1.1991,1.2003,1.2035,1.2048,1.2062,1.2085,1.21,1.2122,1.2132,1.2157,1.217,1.2188,1.2202,1.2195,1.2235,1.2228,1.2241,1.2241,1.2249,1.2249,1.2281,1.2258,1.2258,1.2258,1.2258,0,1.1949,1.1974,1.1997,1.2015,1.2043,1.2057,1.2084,1.2098,1.2117,1.2137,1.2146,1.2164,1.2181,1.2201,1.2212,1.2238,1.2244,1.225,1.2253,1.225,1.2249,1.2258,1.2256,1.2259,1.2259,1.2258,1.2258,0,1.1968,1.1985,1.2018,1.2045,1.2052,1.2071,1.2094,1.2111,1.2124,1.215,1.2156,1.2176,1.2201,1.2216,1.2246,1.2253,1.2282,1.2284,1.2274,1.2275,1.2288,1.2286,1.2327,1.2332,1.2306,1.2306,1.2306,0,1.1986,1.2005,1.2035,1.2049,1.2063,1.2086,1.2102,1.2116,1.2132,1.2159,1.2172,1.2197,1.2218,1.2256,1.2273,1.2296,1.2298,1.2311,1.2301,1.2297,1.2297,1.2296,1.2297,1.2312,1.2312,1.2312,1.2313,0,1.2016,1.2023,1.2046,1.2071,1.2089,1.211,1.213,1.2141,1.2159,1.2176,1.2201,1.2217,1.2248,1.2272,1.2296,1.2309,1.2313,1.2315,1.2319,1.2316,1.2309,1.2312,1.2278,1.2314,1.2314,1.2314,1.2314,1.2314,1.2035,1.2052,1.2075,1.2099,1.2116,1.2134,1.2151,1.2166,1.2188,1.2214,1.2221,1.2247,1.2268,1.2301,1.2314,1.2334,1.2332,1.2338,1.234,1.2341,1.2341,1.2306,1.2339,1.2339,1.2339,1.2338,1.2338,0,1.2065,1.2079,1.2102,1.213,1.2148,1.2151,1.2173,1.2188,1.2211,1.2231,1.2251,1.2279,1.2302,1.2319,1.2343,1.2355,1.2357,1.236,1.2359,1.2362,1.2342,1.2335,1.2358,1.2358,1.2358,1.2358,1.2358,1.2358,1.2082,1.2111,1.212,1.2156,1.217,1.2196,1.2208,1.2225,1.224,1.2271,1.229,1.2302,1.232,1.2345,1.2365,1.237,1.2378,1.238,1.2385,1.2366,1.2364,1.2362,1.2356,1.2382,1.2382,1.2404,1.2404,1.2404]}]]